SV1RVP-13 Weather Reports


Display with metric or nautical units.
time (UTC)temp
F
wind
direction
speed
MPH
gust
MPH
rain 1hr
in
rain 24hr
in
rain mn
in
humidity
%
barometer
mb
20260906104835 94 189 3.0 0.0 0.00 0.00 0.00 41 1016.2
20260906103838 93 273 2.0 0.0 0.00 0.00 0.00 44 1016.1
20260906102836 93 197 3.0 0.0 0.00 0.00 0.00 46 1016.2
20260906101825 93 211 3.0 0.0 0.00 0.00 0.00 46 1016.2
20260906100830 93 163 2.0 0.0 0.00 0.00 0.00 46 1016.3
20260906095833 93 206 2.0 0.0 0.00 0.00 0.00 44 1016.3
20260906094853 93 186 2.0 0.0 0.00 0.00 0.00 47 1016.4
20260906093843 94 213 1.0 0.0 0.00 0.00 0.00 44 1016.4
20260906092840 93 207 2.0 0.0 0.00 0.00 0.00 44 1016.6
20260906091841 93 246 2.0 0.0 0.00 0.00 0.00 43 1016.7
20260906090832 92 238 2.0 0.0 0.00 0.00 0.00 43 1016.7
20260906085828 92 241 2.0 0.0 0.00 0.00 0.00 44 1016.7
20260906084845 92 252 2.0 0.0 0.00 0.00 0.00 44 1016.7
20260906083842 91 182 3.0 0.0 0.00 0.00 0.00 45 1016.9
20260906082842 92 238 2.0 0.0 0.00 0.00 0.00 42 1016.7
20260906081838 92 205 1.0 0.0 0.00 0.00 0.00 38 1016.8
20260906080828 92 306 1.0 0.0 0.00 0.00 0.00 35 1016.8
20260906075838 91 248 1.0 0.0 0.00 0.00 0.00 36 1016.8
20260906074837 90 258 1.0 0.0 0.00 0.00 0.00 36 1016.9
20260906073830 90 253 1.0 0.0 0.00 0.00 0.00 36 1016.8
20260906072830 89 259 1.0 0.0 0.00 0.00 0.00 36 1016.7
20260906071831 88 318 1.0 0.0 0.00 0.00 0.00 36 1016.7
20260906070842 88 254 1.0 0.0 0.00 0.00 0.00 37 1016.6
20260906065833 87 355 1.0 0.0 0.00 0.00 0.00 38 1016.5
20260906064835 87 346 1.0 0.0 0.00 0.00 0.00 38 1016.4
20260906063853 86 336 0.0 0.0 0.00 0.00 0.00 39 1016.3
20260906062841 85 336 0.0 0.0 0.00 0.00 0.00 39 1016.2
20260906061837 85 336 0.0 0.0 0.00 0.00 0.00 40 1016.1
20260906060854 84 336 1.0 0.0 0.00 0.00 0.00 42 1016.0
20260906055842 83 336 1.0 0.0 0.00 0.00 0.00 43 1016.0
20260906054831 82 336 2.0 0.0 0.00 0.00 0.00 43 1015.9
20260906053832 82 336 1.0 0.0 0.00 0.00 0.00 43 1015.9
20260906052853 81 102 0.0 0.0 0.00 0.00 0.00 43 1015.9
20260906051840 81 102 0.0 0.0 0.00 0.00 0.00 43 1015.9
20260906050845 81 102 1.0 0.0 0.00 0.00 0.00 44 1015.9
20260906045834 80 102 0.0 0.0 0.00 0.00 0.00 43 1015.9
20260906044826 80 102 0.0 0.0 0.00 0.00 0.00 44 1015.9
20260906043827 79 102 0.0 0.0 0.00 0.00 0.00 44 1015.8
20260906042848 79 102 1.0 0.0 0.00 0.00 0.00 44 1015.8
20260906041838 79 102 1.0 0.0 0.00 0.00 0.00 44 1015.6
20260906040841 79 102 0.0 0.0 0.00 0.00 0.00 43 1015.5
20260906035831 78 102 1.0 0.0 0.00 0.00 0.00 43 1015.5
20260906034852 78 36 1.0 0.0 0.00 0.00 0.00 43 1015.4
20260906033842 78 16 2.0 0.0 0.00 0.00 0.00 43 1015.3
20260906032843 78 360 2.0 0.0 0.00 0.00 0.00 43 1015.2
20260906031835 78 22 2.0 0.0 0.00 0.00 0.00 43 1015.1
20260906030832 78 346 1.0 0.0 0.00 0.00 0.00 44 1015.2
20260906025825 78 346 1.0 0.0 0.00 0.00 0.00 44 1015.1
20260906024835 78 346 1.0 0.0 0.00 0.00 0.00 44 1015.0
20260906023838 78 346 0.0 0.0 0.00 0.00 0.00 44 1014.7
20260906022835 78 346 1.0 0.0 0.00 0.00 0.00 44 1014.8
20260906021856 79 346 1.0 0.0 0.00 0.00 0.00 44 1014.8
20260906020829 79 38 1.0 0.0 0.00 0.00 0.00 43 1014.8
20260906015838 79 26 0.0 0.0 0.00 0.00 0.00 43 1014.8
20260906014856 79 26 0.0 0.0 0.00 0.00 0.00 43 1014.8
20260906013828 79 26 1.0 0.0 0.00 0.00 0.00 43 1014.9
20260906012827 80 26 0.0 0.0 0.00 0.00 0.00 43 1015.0
20260906011844 80 26 0.0 0.0 0.00 0.00 0.00 42 1015.2
20260906010829 80 26 0.0 0.0 0.00 0.00 0.00 42 1015.2
20260906005844 80 26 0.0 0.0 0.00 0.00 0.00 42 1015.2
20260906004845 80 26 0.0 0.0 0.00 0.00 0.00 42 1015.2
20260906003838 80 26 0.0 0.0 0.00 0.00 0.00 42 1015.1
20260906002839 80 26 0.0 0.0 0.00 0.00 0.00 42 1015.2
20260906001838 80 26 1.0 0.0 0.00 0.00 0.00 42 1015.3
20260906000827 80 26 0.0 0.0 0.00 0.00 0.00 41 1015.2
20260905235839 80 26 0.0 0.0 0.00 0.00 0.00 41 1015.3
20260905234841 81 26 0.0 0.0 0.00 0.00 0.00 40 1015.3
20260905233835 81 26 0.0 0.0 0.00 0.00 0.00 40 1015.4
20260905232834 81 26 1.0 0.0 0.00 0.00 0.00 40 1015.5
20260905231830 81 26 1.0 0.0 0.00 0.00 0.00 40 1015.6
20260905230833 81 26 2.0 0.0 0.00 0.00 0.00 40 1015.6
20260905225826 82 26 1.0 0.0 0.00 0.00 0.00 40 1015.7
20260905224831 82 77 0.0 0.0 0.00 0.00 0.00 40 1015.8
20260905223851 82 5 0.0 0.0 0.00 0.00 0.00 41 1015.8
20260905222839 82 342 1.0 0.0 0.00 0.00 0.00 41 1015.8
20260905221839 83 342 1.0 0.0 0.00 0.00 0.00 41 1015.9
20260905220852 83 80 0.0 0.0 0.00 0.00 0.00 41 1015.7
20260905215844 83 80 0.0 0.0 0.00 0.00 0.00 40 1015.7
20260905214834 83 80 0.0 0.0 0.00 0.00 0.00 40 1015.8
20260905213833 83 14 0.0 0.0 0.00 0.00 0.00 41 1015.8
20260905212852 83 14 1.0 0.0 0.00 0.00 0.00 41 1015.9
20260905211836 84 337 0.0 0.0 0.00 0.00 0.00 40 1015.8
20260905210838 84 337 0.0 0.0 0.00 0.00 0.00 41 1015.9
20260905205829 84 232 0.0 0.0 0.00 0.00 0.00 42 1015.8
20260905204836 84 232 0.0 0.0 0.00 0.00 0.00 42 1016.0
20260905203835 84 232 1.0 0.0 0.00 0.00 0.00 41 1015.9
20260905202839 84 227 1.0 0.0 0.00 0.00 0.00 39 1015.9
20260905201828 84 15 2.0 0.0 0.00 0.00 0.00 39 1015.8
20260905200831 84 9 3.0 0.0 0.00 0.00 0.00 39 1015.7
20260905195827 84 13 3.0 0.0 0.00 0.00 0.00 39 1015.7
20260905194850 84 16 3.0 0.0 0.00 0.00 0.00 39 1015.9
20260905193839 84 17 3.0 0.0 0.00 0.00 0.00 39 1015.9
20260905192843 84 13 3.0 0.0 0.00 0.00 0.00 39 1015.8
20260905191833 84 341 2.0 0.0 0.00 0.00 0.00 39 1015.9
20260905190838 84 9 3.0 0.0 0.00 0.00 0.00 39 1016.1
20260905185835 85 19 4.0 0.0 0.00 0.00 0.00 39 1016.0
20260905184843 85 344 5.0 0.0 0.00 0.00 0.00 39 1015.9
20260905183844 85 13 4.0 0.0 0.00 0.00 0.00 39 1015.8
20260905182849 85 16 4.0 0.0 0.00 0.00 0.00 38 1015.7
20260905181833 85 28 3.0 0.0 0.00 0.00 0.00 38 1015.6
20260905180835 85 30 4.0 0.0 0.00 0.00 0.00 39 1015.5
20260905175849 86 360 3.0 0.0 0.00 0.00 0.00 39 1015.5
20260905174844 86 57 3.0 0.0 0.00 0.00 0.00 38 1015.4
20260905173829 86 51 3.0 0.0 0.00 0.00 0.00 39 1015.3
20260905172851 86 5 3.0 0.0 0.00 0.00 0.00 38 1015.2
20260905171835 87 31 4.0 0.0 0.00 0.00 0.00 38 1015.1
20260905170845 87 22 5.0 0.0 0.00 0.00 0.00 38 1014.9
20260905165832 87 336 5.0 0.0 0.00 0.00 0.00 37 1014.9
20260905164832 88 30 5.0 0.0 0.00 0.00 0.00 37 1014.9
20260905163833 88 16 6.0 0.0 0.00 0.00 0.00 36 1014.9
20260905162853 89 51 6.0 0.0 0.00 0.00 0.00 35 1015.0
20260905161837 89 18 6.0 0.0 0.00 0.00 0.00 35 1014.9
20260905160838 89 360 6.0 0.0 0.00 0.00 0.00 34 1015.0
20260905155836 89 300 7.0 0.0 0.00 0.00 0.00 35 1015.0
20260905154835 90 334 7.0 0.0 0.00 0.00 0.00 34 1015.0
20260905153840 90 355 5.0 0.0 0.00 0.00 0.00 34 1014.9
20260905152841 90 5 7.0 0.0 0.00 0.00 0.00 35 1015.0
20260905151856 90 34 8.0 0.0 0.00 0.00 0.00 35 1015.0
20260905150842 91 20 6.0 0.0 0.00 0.00 0.00 34 1015.0
20260905145830 91 335 8.0 0.0 0.00 0.00 0.00 34 1014.9
20260905144848 91 344 7.0 0.0 0.00 0.00 0.00 35 1014.7
20260905143838 91 343 6.0 0.0 0.00 0.00 0.00 35 1014.8
20260905142836 91 25 6.0 0.0 0.00 0.00 0.00 34 1014.8
20260905141838 91 21 7.0 0.0 0.00 0.00 0.00 36 1014.8
20260905134829 92 324 6.0 0.0 0.00 0.00 0.00 36 1014.8
20260905133853 91 34 8.0 0.0 0.00 0.00 0.00 36 1014.9
20260905132842 92 19 6.0 0.0 0.00 0.00 0.00 36 1015.0
20260905131845 92 33 7.0 0.0 0.00 0.00 0.00 36 1015.1
20260905130835 92 347 6.0 0.0 0.00 0.00 0.00 36 1015.1
20260905125829 91 17 9.0 0.0 0.00 0.00 0.00 35 1015.0
20260905124831 91 123 8.0 0.0 0.00 0.00 0.00 35 1015.1
20260905123843 92 360 7.0 0.0 0.00 0.00 0.00 35 1015.2
20260905122827 92 311 6.0 0.0 0.00 0.00 0.00 36 1015.3
20260905121848 91 9 5.0 0.0 0.00 0.00 0.00 37 1015.3
20260905120840 91 35 8.0 0.0 0.00 0.00 0.00 37 1015.3
20260905115839 91 360 7.0 0.0 0.00 0.00 0.00 37 1015.5
20260905114839 91 9 9.0 0.0 0.00 0.00 0.00 37 1015.5
20260905113830 91 34 8.0 0.0 0.00 0.00 0.00 37 1015.7
20260905112832 91 12 9.0 0.0 0.00 0.00 0.00 36 1015.5
20260905111831 91 25 8.0 0.0 0.00 0.00 0.00 37 1015.5
20260905110832 90 83 8.0 0.0 0.00 0.00 0.00 37 1015.7
20260905105830 90 54 7.0 0.0 0.00 0.00 0.00 36 1015.6